sat.trackr.live / text

‹ back to catalog

ONEWEB-0273

NORAD 48991 · 2021-060AA

PAYLOAD ACTIVE UNKNOWN

§ Identity

Operator
Country
UK
Launch date
2021-07-01
Launch site
VOSTO
Launch vehicle
Mass (kg)
RCS (m²)

Purposes: comms

External: N2YO · Heavens-Above · Gunter

§ Orbital elements

Epoch: 2026-09-15T08:20:31.037280Z

Period
109.37 min
Inclination
87.9137°
Eccentricity
0.0001999
Mean motion
13.16593350 rev/d
Perigee alt
1,196.2 km
Apogee alt
1,199.3 km
Semi-major
7,575.9 km
B*
-2.3949e-4
RAAN
210.8787°
Arg perigee
73.4813°
Mean anomaly
286.6538°
Rev number
25,145

§ Raw data

ONEWEB-02731 48991U 21060AA  26258.34758145 -.00000079  00000+0 -23949-3 0  99972 48991  87.9137 210.8787 0001999  73.4813 286.6538 13.16593350251456

JSON: /api/v1/satellites/48991 · /tle

For live sub-satellite position, see the globe view (requires WebGL).

§ Visibility from observer

Set your observer location to see the next 7 days of passes ≥ 10°. The values pass through the URL so the page stays shareable.

No JS? Fill the form by hand. The geolocation button needs JavaScript.